Location: Unspecified
(0.0000°N, 0.0000°E)
Time: 18:16:06
(UTC+00:00)

Falcon 9 debris - Visible Passes

Search period start: 26 May 2022 00:00
Search period end: 05 June 2022 00:00
Orbit: 392 x 397 km, 53.0° (Epoch: 25 May)

Date Brightness Start Highest point End Pass type
(mag) Time Alt. Az. Time Alt. Az. Time Alt. Az.
26 May ? 05:30:58 10° SW 05:34:05 47° NW 05:37:11 10° NNE visible
27 May ? 04:37:42 30° S 04:38:45 42° SE 04:41:49 10° NE visible
28 May ? 03:45:04 10° E 03:45:04 10° E 03:45:05 10° E visible
28 May ? 05:17:33 11° W 05:19:15 16° NW 05:21:16 10° NNW visible
29 May ? 04:24:47 34° N 04:24:47 34° N 04:26:53 10° NNE visible
